Regional Weather Roundup
Issued by NWS Green Bay, WI

Home | Current Version | Previous Version | Text Only | Print | Product List | Glossary On
Versions: 1 2 3 4 5 6 7 8 9 10 11 12 13 14 15 16 17 18 19 20 21 22 23 24 25 26 27 28 29 30 31 32 33 34 35 36 37 38 39 40 41 42 43 44 45 46 47 48 49 50
000
ASUS43 KGRB 030900
RWRGRB

NORTH-CENTRAL AND NORTHEAST WISCONSIN REGIONAL WEATHER ROUNDUP
NATIONAL WEATHER SERVICE GREEN BAY WI
400 AM CDT FRI JUL 03 2015

WIZ005-009-010>012-018-019-031000-
NORTH CENTRAL WISCONSIN

CITY           SKY/WX    TMP DP  RH WIND       PRES   REMARKS
IRONWOOD       CLEAR     63  54  72 SW10      29.91F
MANITOWISH WTR NOT AVBL
ARBOR VITAE    NOT AVBL
EAGLE RIVER    NOT AVBL
LAND O LAKES   NOT AVBL
RHINELANDER    CLEAR     57  50  77 SW8       30.00S
PHILLIPS       NOT AVBL
ANTIGO         NOT AVBL
TOMAHAWK       NOT AVBL
MERRILL        NOT AVBL
$$

WIZ013-073-031000-
NORTHEAST WISCONSIN

CITY           SKY/WX    TMP DP  RH WIND       PRES   REMARKS
IRON MOUNTAIN  CLEAR     53  48  83 CALM      29.96S
MARINETTE      CLEAR     55  46  71 CALM      29.98S
$$

WIZ017-030-035>037-045-031000-
CENTRAL WISCONSIN

CITY           SKY/WX    TMP DP  RH WIND       PRES   REMARKS
MEDFORD        NOT AVBL
WAUSAU         CLEAR     52  49  89 SE3       29.99S
MOSINEE        NOT AVBL
MARSHFIELD     CLEAR     54  48  80 SW3       30.01R
WISC RAPIDS    CLEAR     51  46  83 CALM      30.02R
STEVENS POINT  NOT AVBL
WAUPACA        NOT AVBL
SHAWANO        NOT AVBL
CLINTONVILLE   NOT AVBL
$$

WIZ038-039-048-051-031000-
FOX VALLEY

CITY           SKY/WX    TMP DP  RH WIND       PRES   REMARKS
NWS GREEN BAY  CLEAR     53  48  83 CALM      30.00R
APPLETON       NOT AVBL
OSHKOSH        PTCLDY    53  45  74 SW3       29.99S
FOND DU LAC    PTCLDY    50  47  89 CALM      30.00S
$$

WIZ022-050-052-031000-
EAST CENTRAL WISCONSIN

CITY           SKY/WX    TMP DP  RH WIND       PRES   REMARKS
STURGEON BAY   CLEAR     54  43  66 CALM      30.01S
MANITOWOC      NOT AVBL
SHEBOYGAN      CLEAR     49  46  90 CALM      29.99F
$$

LMZ563-521-522-541>543-031000-
LAKESHORE

STATION/POSITION TIME  TEMP    WIND        PRES    VSBY  WAVE
                       AIR SEA DIR/SP/G                  HT/PER
                 (UTC) (F)     (DEG/KT/KT) (MB)    (MI)  (FT/S)
SHEBOYGAN LKSHOR 0800   57     290/  4/  4 1015.9F
KEWAUNEE LKSHORE 0800   55     300/  4/  5 1014.9F
ALGOMA MARINA    0810             CALM       N/A
NORTHPORT PIER   0800   60     180/  4/  6 1015.2R
N MID LAKE BUOY  0750   52 47  210/  6/  8 1015.4R         0
S GREEN BAY BUOY 0830   64 68  180/  8/ 10 1016.6F
SISTER BAY LKSHO 0814   62     210/ 10/ 12   N/A
CHAMBERS ISLAND  0800   63     180/  5/  9 1015.2S
MENOMINEE LKSHOR 0800   60     200/  5/  7 1015.8S
$$



USA.gov is the U.S. government's official web portal to all federal, state and local government web resources and services.